Regional Weather Roundup
Issued by NWS

Home | Current Version | Previous Version | Graphics & Text | Print | Product List | Glossary On
Versions: 1 2 3 4 5 6 7 8 9 10 11 12 13 14 15 16 17 18 19 20 21 22 23 24 25 26 27 28 29 30 31 32 33 34 35 36 37 38 39 40 41 42 43 44 45 46 47 48 49 50
000
ASUS43 KFSD 210502
RWRSD

WEATHER ROUNDUP FOR SOUTH DAKOTA
NATIONAL WEATHER SERVICE SIOUX FALLS SD
1100 PM CST FRI JAN 20 2017

NOTE: "FAIR" INDICATES FEW OR NO CLOUDS BELOW 12,000 FEET WITH NO
SIGNIFICANT WEATHER AND/OR OBSTRUCTIONS TO VISIBILITY.


SDZ001>005-009-010-012>017-210600-
NORTHWEST AND NORTH CENTRAL SOUTH DAKOTA

CITY           SKY/WX    TMP DP  RH WIND       PRES   REMARKS
BUFFALO          N/A     36  31  82 W25       29.27S
FAITH            N/A     22  21  96 NW9       29.31S WCI  12
MOBRIDGE       CLOUDY    24  21  88 SE3       29.28F FOG
$$

SDZ012>016-024>037-041>051-057-063-072>074-210600-
SOUTHWEST AND SOUTH CENTRAL SOUTH DAKOTA

CITY           SKY/WX    TMP DP  RH WIND       PRES   REMARKS
RAPID CTY ARPT CLOUDY    36  31  82 NW9       29.35S
PIERRE         CLOUDY    24  22  91 SW8       29.33S FOG     WCI  15
CUSTER         LGT SNOW  30  28  92 CALM      29.32F FOG
ELLSWORTH AFB  CLOUDY    37  32  81 NW17      29.34S
PHILIP         CLOUDY    26  24  92 NW3       29.33S
PINE RIDGE     CLOUDY    35  33  92 W7        29.36S WCI  29
SPEARFISH        N/A    N/A N/A N/A MISG        N/A
WINNER         CLOUDY    34  30  85 W5        29.35R WCI  30
$$

SDZ004>011-016>023-039-040-210600-
NORTHEAST SOUTH DAKOTA

CITY           SKY/WX    TMP DP  RH WIND       PRES   REMARKS
ABERDEEN       CLOUDY    32  28  85 CALM      29.35F
WATERTOWN      FOG       34  34 100 S13       29.37S VSB 1/4 WCI  25
BROOKINGS      FOG       36  35  96 SE15      29.40S VSB 1/2
SISSETON         N/A     34  34 100 S13       29.39F WCI  25
$$

SDZ017-020-022-023-036>040-048>070-210600-
SOUTHEAST SOUTH DAKOTA

CITY           SKY/WX    TMP DP  RH WIND       PRES   REMARKS
SIOUX FALLS    LGT RAIN  38  38 100 SE8       29.41F VSB 1/2
HURON          CLOUDY    38  38 100 S13       29.35S FOG
CHAMBERLAIN    CLOUDY    33  31  94 CALM      29.35S
MITCHELL       CLOUDY    39  39 100 S10       29.38S FOG
YANKTON        CLOUDY    39  37  93 SE7       29.38F
$$

ABBREVIATIONS USED IN REMARKS
   TC - TEMPERATURE IN CELSIUS
  WCI - WIND CHILL INDEX
   HX - HEAT INDEX
  VSB - VISIBILITY




USA.gov is the U.S. government's official web portal to all federal, state and local government web resources and services.